Вернуться в каталог

STARLINK-32442

АктивенСвязьVLEO
NORAD 61729·PAYLOAD·🇺🇸 United States

Запущен Oct 30, 2024 с Cape Canaveral Space Force Station

Loading…

Ближайшие Пролёты (ближайшие 24 часа)

TLE

СвежийSource: CelesTrak SupGP

Эпоха: Sep 15, 2026, 02:12 UTC

1 61729C 24196Y   26258.09215278  .00037084  00000+0  10955-2 0  2585
2 61729  53.1587 298.8875 0001277  97.2887 238.3787 15.34376937    18

Отслеживайте STARLINK-32442 в реальном времени с AllMySat

Download on the App Store